N2UGS-WX Weather Reports


Display with metric or nautical units.
time (UTC)temp
F
wind
direction
speed
MPH
gust
MPH
rain 1hr
in
rain 24hr
in
rain mn
in
humidity
%
barometer
mb
20260903052501 70 285 8.0 9.0 0.00 0.00 0.00 94 1013.5
20260903051402 70 196 5.0 7.0 0.00 0.00 0.00 94 1013.9
20260903050003 70 217 8.0 8.0 0.00 0.00 0.00 95 1013.9
20260903044502 70 234 4.0 6.0 0.00 0.00 0.00 95 1013.9
20260903042902 69 272 2.0 5.0 0.00 0.00 0.00 95 1013.5
20260903041501 69 245 3.0 10.0 0.00 0.00 0.00 95 1013.2
20260903040002 69 312 4.0 12.0 0.00 0.00 0.00 96 1012.9
20260903034402 69 242 4.0 8.0 0.00 0.00 0.35 97 1012.9
20260903033002 69 223 4.0 5.0 0.00 0.00 0.35 97 1013.2
20260903031502 69 222 3.0 4.0 0.00 0.00 0.35 97 1013.5
20260903025902 69 201 2.0 5.0 0.00 0.00 0.35 97 1014.2
20260903024503 69 248 2.0 4.0 0.00 0.00 0.35 97 1013.9
20260903023002 69 121 0.0 2.0 0.01 0.00 0.35 97 1014.6
20260903021502 69 245 3.0 5.0 0.01 0.00 0.35 97 1014.6
20260903020004 69 165 3.0 7.0 0.01 0.00 0.35 97 1014.9
20260903014402 70 208 3.0 3.0 0.01 0.00 0.35 97 1014.2
20260903013002 70 245 0.0 0.0 0.01 0.00 0.34 97 1014.6
20260903011502 70 227 3.0 5.0 0.01 0.00 0.34 97 1013.9
20260903010003 70 154 0.0 3.0 0.05 0.00 0.34 97 1014.2
20260903004502 70 243 4.0 5.0 0.06 0.00 0.34 97 1012.9
20260903003003 70 286 0.0 1.0 0.09 0.00 0.33 96 1012.9
20260903001502 70 167 0.0 3.0 0.09 0.00 0.32 96 1013.2
20260903000002 70 174 0.0 7.0 0.27 0.00 0.28 95 1012.9
20260902234502 71 34 7.0 16.0 0.24 0.00 0.26 94 1013.9
20260902233003 72 338 13.0 13.0 0.21 0.00 0.23 94 1014.6
20260902231502 72 264 10.0 13.0 0.21 0.00 0.23 92 1014.2
20260902230003 78 344 5.0 8.0 0.00 0.00 0.02 86 1013.5
20260902224901 79 293 2.0 9.0 0.00 0.00 0.02 86 1012.2
20260902223402 80 213 6.0 8.0 0.00 0.00 0.02 83 1013.2
20260902222401 80 280 6.0 12.0 0.00 0.00 0.02 82 1012.9
20260902220903 81 253 3.0 10.0 0.00 0.00 0.02 80 1012.5
20260902215403 83 283 9.0 9.0 0.00 0.00 0.02 77 1012.2
20260902213901 84 249 1.0 8.0 0.00 0.00 0.02 76 1011.9
20260902212502 85 205 3.0 9.0 0.00 0.00 0.02 74 1012.9
20260902211402 85 336 3.0 7.0 0.00 0.00 0.02 75 1012.9
20260902205902 83 320 1.0 4.0 0.00 0.00 0.02 80 1013.2
20260902204503 82 251 5.0 6.0 0.00 0.00 0.02 80 1013.5
20260902203002 82 292 1.0 4.0 0.00 0.00 0.02 80 1013.9
20260902201502 82 256 4.0 8.0 0.00 0.00 0.02 78 1014.2
20260902200002 82 308 5.0 14.0 0.00 0.00 0.02 77 1014.6
20260902195001 82 257 3.0 12.0 0.00 0.00 0.02 76 1014.9
20260902193502 85 251 6.0 10.0 0.00 0.00 0.02 70 1014.9
20260902192002 86 264 11.0 12.0 0.00 0.00 0.02 69 1014.9
20260902190502 86 154 3.0 8.0 0.00 0.00 0.02 67 1014.9
20260902185002 86 355 8.0 11.0 0.00 0.00 0.02 65 1014.9
20260902183903 86 242 7.0 9.0 0.00 0.00 0.02 64 1014.9
20260902182502 86 198 4.0 11.0 0.00 0.00 0.02 66 1014.9
20260902181402 86 247 4.0 13.0 0.00 0.00 0.02 69 1014.9
20260902180005 84 305 6.0 9.0 0.00 0.00 0.02 72 1014.9
20260902174502 82 259 6.0 8.0 0.00 0.00 0.02 78 1015.2
20260902173003 78 180 1.0 8.0 0.02 0.00 0.02 86 1015.6
20260902171503 76 265 4.0 4.0 0.02 0.00 0.02 89 1015.9
20260902170502 76 310 0.0 4.0 0.02 0.00 0.02 87 1016.3
20260902165402 77 84 2.0 2.0 0.02 0.00 0.02 85 1016.6
20260902164001 79 251 2.0 3.0 0.00 0.00 0.00 78 1015.6
20260902162502 79 131 4.0 8.0 0.00 0.00 0.00 77 1015.2
20260902161402 80 254 3.0 9.0 0.00 0.00 0.00 76 1015.6
20260902160001 82 342 4.0 9.0 0.00 0.00 0.00 72 1015.9
20260902154502 83 205 4.0 8.0 0.00 0.00 0.00 71 1015.9
20260902153402 82 251 2.0 8.0 0.00 0.00 0.00 72 1015.9
20260902151901 82 302 10.0 10.0 0.00 0.00 0.00 73 1015.9
20260902150502 81 292 4.0 10.0 0.00 0.00 0.00 74 1016.3
20260902145002 80 157 2.0 10.0 0.00 0.00 0.00 80 1016.6
20260902143502 78 42 2.0 8.0 0.00 0.00 0.00 83 1016.6
20260902142002 76 200 1.0 3.0 0.00 0.00 0.00 88 1016.6
20260902140503 73 68 0.0 3.0 0.00 0.00 0.00 89 1016.9
20260902135502 72 188 1.0 3.0 0.00 0.00 0.00 89 1016.6
20260902134002 72 196 1.0 7.0 0.00 0.00 0.00 89 1016.6
20260902132502 72 212 3.0 5.0 0.00 0.00 0.00 90 1016.3
20260902131501 72 200 3.0 3.0 0.00 0.00 0.00 91 1016.6
20260902130003 71 271 0.0 3.0 0.00 0.00 0.00 91 1017.3
20260902124503 71 128 0.0 4.0 0.00 0.00 0.00 90 1017.3
20260902123003 72 71 5.0 10.0 0.00 0.00 0.00 88 1017.6
20260902121502 75 5 4.0 5.0 0.00 0.00 0.00 89 1016.3
20260902120003 74 308 6.0 10.0 0.00 0.00 0.00 92 1015.2
20260902115001 73 300 0.0 6.0 0.00 0.00 0.00 93 1014.9
20260902113503 73 173 2.0 7.0 0.00 0.00 0.00 95 1014.9
20260902112501 72 232 5.0 7.0 0.00 0.00 0.00 95 1014.9
20260902111002 72 211 3.0 5.0 0.00 0.00 0.00 97 1014.6
20260902105502 72 278 0.0 6.0 0.00 0.00 0.00 97 1013.9
20260902104001 72 218 0.0 5.0 0.00 0.00 0.00 98 1013.9
20260902102502 71 185 4.0 5.0 0.00 0.00 0.00 99 1014.6
20260902101002 71 20 0.0 3.0 0.00 0.00 0.00 99 1014.2
20260902095502 71 197 0.0 2.0 0.00 0.00 0.00 99 1014.2
20260902094002 72 306 0.0 0.0 0.00 0.00 0.00 99 1014.6
20260902092902 71 234 0.0 1.0 0.00 0.00 0.00 99 1014.6
20260902091501 72 142 0.0 3.0 0.00 0.00 0.00 99 1014.9
20260902090003 71 174 0.0 4.0 0.00 0.00 0.00 99 1014.9
20260902085001 71 276 0.0 4.0 0.00 0.00 0.00 99 1014.9
20260902083502 71 275 0.0 0.0 0.00 0.00 0.00 99 1015.2
20260902082002 70 97 0.0 0.0 0.00 0.00 0.00 99 1015.6
20260902081002 70 309 0.0 0.0 0.00 0.00 0.00 99 1015.6
20260902075502 70 312 0.0 0.0 0.00 0.00 0.00 99 1015.6
20260902074003 70 311 0.0 0.0 0.00 0.00 0.00 99 1015.6
20260902073001 70 327 0.0 0.0 0.00 0.00 0.00 99 1015.6
20260902071501 70 19 0.0 0.0 0.00 0.00 0.00 99 1015.9
20260902070002 70 170 0.0 0.0 0.00 0.00 0.00 98 1015.9
20260902064502 70 222 0.0 0.0 0.00 0.00 0.00 98 1015.9
20260902063003 70 131 0.0 0.0 0.00 0.00 0.00 98 1015.9
20260902062002 70 136 0.0 0.0 0.00 0.00 0.00 98 1015.9
20260902060503 70 94 0.0 0.0 0.00 0.00 0.00 98 1015.9
20260902055502 70 139 0.0 0.0 0.00 0.00 0.00 98 1015.9
20260902054002 70 89 0.0 0.0 0.00 0.00 0.00 97 1015.9